Weather History for Dyersburg, TN

Change the Weather History Date:

Thursday, October 24, 2013

  Actual Average Record
Temperature  
Mean Temperature 47 °F -  
Max Temperature 55 °F 68 °F 82 °F (2000)
Min Temperature 39 °F 47 °F 30 °F (2006)
Degree Days  
Heating Degree Days 18    
Moisture  
Dew Point 32 °F    
Average Humidity 54    
Maximum Humidity 71    
Minimum Humidity 38    
Precipitation  
Precipitation 0.00 in - - ()
Sea Level Pressure  
Sea Level Pressure 30.25 in    
Wind  
Wind Speed 4 mph (North)    
Max Wind Speed 16 mph    
Max Gust Speed 22 mph    
Visibility 10 miles    
Events      
Averages and records for this station are not official NWS values.
T = Trace of Precipitation, MM = Missing Value Source: NWS Daily Summary

Daily Weather History Graph

Daily Weather History Graph

Search for Another Location

Airport:

Trip Planner

Search our weather history database for the weather conditions in past years. The results will help you decide how hot, cold, wet, or windy it might be!

Date:

Astronomy

Oct. 24, 2013 Rise Set
Actual Time 7:12 AM CDT 6:10 PM CDT
Civil Twilight 6:46 AM CDT 6:36 PM CDT
Nautical Twilight 6:16 AM CDT 7:06 PM CDT
Astronomical Twilight 5:46 AM CDT 7:36 PM CDT
Moon 10:38 PM CDT (10/24) 12:09 PM CDT (10/24)
Length of Visible Light 11h 49m
Length of Day
10h 57m
Waning Gibbous, 71% of the Moon is Illuminated
Oct 24
Waning Gibbous
Oct 26
Last Quarter
Nov 3
New
Nov 9
First Quarter
Nov 17
Full

Hourly Weather History & Observations

Time (CDT) Temp. Windchill Dew Point Humidity Pressure Visibility Wind Dir Wind Speed Gust Speed Precip Events Conditions
12:15 AM 46.4 °F - 35.6 °F 66% 30.14 in 10.0 mi Calm Calm - N/A   Overcast
12:35 AM 46.4 °F - 35.6 °F 66% 30.14 in 10.0 mi Calm Calm - N/A   Overcast
12:55 AM 46.4 °F - 35.6 °F 66% 30.14 in 10.0 mi Calm Calm - N/A   Overcast
1:15 AM 46.4 °F - 35.6 °F 66% 30.14 in 10.0 mi Calm Calm - N/A   Overcast
1:35 AM 46.4 °F - 35.6 °F 66% 30.14 in 10.0 mi Calm Calm - N/A   Overcast
1:55 AM 46.4 °F - 35.6 °F 66% 30.14 in 10.0 mi Calm Calm - N/A   Overcast
2:15 AM 46.4 °F - 35.6 °F 66% 30.14 in 10.0 mi Calm Calm - N/A   Overcast
2:35 AM 46.4 °F - 37.4 °F 71% 30.14 in 10.0 mi Calm Calm - N/A   Overcast
2:55 AM 46.4 °F - 35.6 °F 66% 30.14 in 10.0 mi Calm Calm - N/A   Overcast
3:15 AM 46.4 °F 45.2 °F 35.6 °F 66% 30.14 in 10.0 mi SSE 3.5 mph - N/A   Overcast
3:35 AM 46.4 °F - 35.6 °F 66% 30.14 in 10.0 mi Calm Calm - N/A   Overcast
3:55 AM 46.4 °F - 35.6 °F 66% 30.14 in 10.0 mi Calm Calm - N/A   Overcast
4:15 AM 46.4 °F - 35.6 °F 66% 30.13 in 10.0 mi Calm Calm - N/A   Overcast
4:35 AM 46.4 °F 45.2 °F 35.6 °F 66% 30.14 in 10.0 mi South 3.5 mph - N/A   Overcast
4:55 AM 46.4 °F 45.2 °F 35.6 °F 66% 30.14 in 10.0 mi South 3.5 mph - N/A   Overcast
5:15 AM 46.4 °F - 35.6 °F 66% 30.14 in 10.0 mi Calm Calm - N/A   Overcast
5:35 AM 46.4 °F - 35.6 °F 66% 30.15 in 10.0 mi Calm Calm - N/A   Overcast
5:55 AM 46.4 °F - 35.6 °F 66% 30.15 in 10.0 mi Calm Calm - N/A   Overcast
6:15 AM 46.4 °F - 35.6 °F 66% 30.15 in 10.0 mi Calm Calm - N/A   Overcast
6:35 AM 46.4 °F - 35.6 °F 66% 30.16 in 10.0 mi Calm Calm - N/A   Overcast
6:55 AM 46.4 °F 45.2 °F 35.6 °F 66% 30.17 in 10.0 mi North 3.5 mph - N/A   Scattered Clouds
7:15 AM 46.4 °F 45.2 °F 35.6 °F 66% 30.17 in 10.0 mi NNE 3.5 mph - N/A   Clear
7:35 AM 46.4 °F - 35.6 °F 66% 30.18 in 10.0 mi Calm Calm - N/A   Clear
7:55 AM 46.4 °F 44.3 °F 35.6 °F 66% 30.19 in 10.0 mi NNE 4.6 mph - N/A   Scattered Clouds
8:15 AM 46.4 °F 43.5 °F 37.4 °F 71% 30.20 in 10.0 mi North 5.8 mph - N/A   Overcast
8:35 AM 48.2 °F - 35.6 °F 62% 30.20 in 10.0 mi ENE 5.8 mph - N/A   Scattered Clouds
8:55 AM 48.2 °F - 35.6 °F 62% 30.21 in 5.0 mi NNE 6.9 mph - N/A   Partly Cloudy
9:15 AM 48.2 °F - 35.6 °F 62% 30.22 in 5.0 mi NE 5.8 mph - N/A   Mostly Cloudy
9:35 AM 50.0 °F - 37.4 °F 62% 30.24 in 10.0 mi NE 5.8 mph - N/A   Scattered Clouds
9:55 AM 51.8 °F - 35.6 °F 54% 30.24 in 10.0 mi North 4.6 mph - N/A   Mostly Cloudy
10:15 AM 51.8 °F - 35.6 °F 54% 30.25 in 10.0 mi North 8.1 mph - N/A   Overcast
10:35 AM 51.8 °F - 33.8 °F 50% 30.25 in 10.0 mi North 6.9 mph - N/A   Mostly Cloudy
10:55 AM 51.8 °F - 32.0 °F 47% 30.26 in 10.0 mi North 13.8 mph - N/A   Mostly Cloudy
11:15 AM 53.6 °F - 33.8 °F 47% 30.26 in 10.0 mi North 11.5 mph 17.3 mph N/A   Mostly Cloudy
11:35 AM 53.6 °F - 30.2 °F 41% 30.26 in 10.0 mi North 12.7 mph 18.4 mph N/A   Partly Cloudy
11:55 AM 53.6 °F - 32.0 °F 44% 30.26 in 10.0 mi North 9.2 mph - N/A   Scattered Clouds
12:15 PM 53.6 °F - 32.0 °F 44% 30.26 in 10.0 mi North 13.8 mph 19.6 mph N/A   Mostly Cloudy
12:35 PM 53.6 °F - 32.0 °F 44% 30.25 in 10.0 mi NNE 12.7 mph 16.1 mph N/A   Overcast
12:55 PM 55.4 °F - 33.8 °F 44% 30.26 in 10.0 mi North 12.7 mph 17.3 mph N/A   Mostly Cloudy
1:15 PM 53.6 °F - 33.8 °F 47% 30.25 in 10.0 mi North 11.5 mph 18.4 mph N/A   Overcast
1:35 PM 53.6 °F - 33.8 °F 47% 30.25 in 10.0 mi NW 12.7 mph - N/A   Mostly Cloudy
1:55 PM 55.4 °F - 32.0 °F 41% 30.25 in 10.0 mi North 15.0 mph 20.7 mph N/A   Mostly Cloudy
2:15 PM 55.4 °F - 33.8 °F 44% 30.25 in 10.0 mi North 16.1 mph 21.9 mph N/A   Mostly Cloudy
2:35 PM 53.6 °F - 32.0 °F 44% 30.26 in 10.0 mi North 11.5 mph - N/A   Mostly Cloudy
2:55 PM 51.8 °F - 30.2 °F 44% 30.27 in 10.0 mi North 10.4 mph - N/A   Mostly Cloudy
3:15 PM 53.6 °F - 32.0 °F 44% 30.27 in 10.0 mi NNW 12.7 mph 20.7 mph N/A   Mostly Cloudy
3:35 PM 53.6 °F - 30.2 °F 41% 30.27 in 10.0 mi NNW 13.8 mph - N/A   Scattered Clouds
3:55 PM 53.6 °F - 30.2 °F 41% 30.27 in 10.0 mi NNW 9.2 mph 16.1 mph N/A   Scattered Clouds
4:15 PM 53.6 °F - 30.2 °F 41% 30.27 in 10.0 mi NNW 11.5 mph - N/A   Partly Cloudy
4:35 PM 53.6 °F - 28.4 °F 38% 30.27 in 10.0 mi NNW 10.4 mph - N/A   Clear
4:55 PM 53.6 °F - 28.4 °F 38% 30.28 in 10.0 mi NNW 12.7 mph 19.6 mph N/A   Clear
5:15 PM 51.8 °F - 26.6 °F 38% 30.29 in 10.0 mi North 12.7 mph 20.7 mph N/A   Clear
5:35 PM 51.8 °F - 26.6 °F 38% 30.29 in 10.0 mi NNW 9.2 mph 17.3 mph N/A   Clear
5:55 PM 50.0 °F - 26.6 °F 40% 30.30 in 10.0 mi North 9.2 mph - N/A   Clear
6:15 PM 48.2 °F - 26.6 °F 43% 30.30 in 10.0 mi North 6.9 mph - N/A   Clear
6:35 PM 46.4 °F 42.9 °F 26.6 °F 46% 30.31 in 10.0 mi North 6.9 mph - N/A   Clear
6:55 PM 46.4 °F 42.9 °F 24.8 °F 43% 30.32 in 10.0 mi North 6.9 mph - N/A   Clear
7:15 PM 46.4 °F 42.9 °F 24.8 °F 43% 30.32 in 10.0 mi NNE 6.9 mph - N/A   Clear
7:35 PM 46.4 °F 41.9 °F 24.8 °F 43% 30.33 in 10.0 mi NNE 9.2 mph - N/A   Clear
7:55 PM 46.4 °F 42.4 °F 24.8 °F 43% 30.33 in 10.0 mi NNE 8.1 mph - N/A   Clear
8:15 PM 44.6 °F 41.4 °F 24.8 °F 46% 30.34 in 10.0 mi NNE 5.8 mph - N/A   Clear
8:35 PM 44.6 °F 42.2 °F 24.8 °F 46% 30.35 in 10.0 mi NNE 4.6 mph - N/A   Clear
8:55 PM 42.8 °F - 24.8 °F 49% 30.36 in 10.0 mi Calm Calm - N/A   Clear
9:15 PM 41.0 °F - 26.6 °F 57% 30.36 in 10.0 mi Calm Calm - N/A   Clear
9:35 PM 42.8 °F - 24.8 °F 49% 30.37 in 10.0 mi Calm Calm - N/A   Clear
9:55 PM 41.0 °F 39.0 °F 24.8 °F 53% 30.38 in 10.0 mi NE 3.5 mph - N/A   Clear
10:15 PM 39.2 °F 37.0 °F 26.6 °F 61% 30.39 in 10.0 mi NE 3.5 mph - N/A   Clear
10:35 PM 39.2 °F 37.0 °F 26.6 °F 61% 30.40 in 10.0 mi NNE 3.5 mph - N/A   Clear
10:55 PM 41.0 °F 39.0 °F 24.8 °F 53% 30.40 in 10.0 mi NNE 3.5 mph - N/A   Clear
11:15 PM 39.2 °F 35.9 °F 24.8 °F 56% 30.41 in 10.0 mi NNE 4.6 mph - N/A   Clear
11:35 PM 39.2 °F 35.0 °F 24.8 °F 56% 30.41 in 10.0 mi NNE 5.8 mph - N/A   Clear
11:55 PM 39.2 °F 34.2 °F 24.8 °F 56% 30.42 in 10.0 mi NNE 6.9 mph - N/A   Clear